Location: McFarlands Corners
(41.4117°N, 81.3382°W)
Time: 16:35:50
(UTC+00:00)

SR - Pass Details

Date: 21 February 2026
Orbit: 572 x 849 km, 66.7° (Epoch: 12 March)

Event Time Altitude Azimuth Distance (km) Brightness Sun altitude
Rises 17:00:21 0° 337° (NNW) 3,082 ? 37.5°
Reaches altitude 10° 17:02:49 10° 347° (NNW) 2,208 ? 37.6°
Maximum altitude 17:07:25 34° 52° (NE) 1,234 ? 37.7°
Drops below altitude 10° 17:12:19 10° 117° (ESE) 2,357 ? 37.9°
Sets 17:15:01 0° 126° (SE) 3,321 ? 37.9°
